目前日期文章:201501 (166)

瀏覽方式: 標題列表 簡短摘要
發表時間 文章標題 人氣 留言
2015-01-31 like【GUCCI】Guccissima 金屬鍊帶釦式長夾_展示品(銘黃色) (0) (0)
2015-01-31 超讚!【德國 OSEN】阿爾卑斯果粒茶─草莓柑橘 二入組(125g-2) (0) (0)
2015-01-31 【JYP.nature】纖盈酵素錠(順暢窈窕) (1) (0)
2015-01-31 【太田胃散】DNJ速纖順暢桑葉茶(30小茶包入) (0) (0)
2015-01-31 like【agnes b.】星星造型別針(綠) (0) (0)
2015-01-30 【BABY UNIT】櫻花嫩紅蜜(7mlx8) (0) (0)
2015-01-30 【dr.Organic丹霓珂】活性蜂王乳腿部雕塑乳液2入組 (0) (0)
2015-01-30 【Dr Mainz】惠緹雙A-完美五合一保濕凝露(30g) (0) (0)
2015-01-30 超讚!【burner倍熱】輕孅抹茶奶昔6盒好康組(共30包) (2) (0)
2015-01-30 like【PRADA】浮雕LOGO荔枝紋皮革波士頓包.深咖(附鎖組) (0) (0)
2015-01-29 超讚!聖保羅烘焙廚房 餅乾花園 (0) (0)
2015-01-29 【Samsung】Galaxy Note 3 Neo 六核心5.5吋智慧型手機(送3000行電+電池套筒組) (0) (0)
2015-01-29 超讚!【草本之家】晶氏能葉黃素液(1000mlX3瓶) (0) (0)
2015-01-29 超讚![村子口] 甕燒藥燉排骨-澎湃2入組(1200g-入) (0) (0)
2015-01-29 超讚!【日本TANITA】九合一體組成計BC565(鏡面天藍) (2) (0)
2015-01-28 【InFocus】M530 4G LTE 全頻 5.5吋雙卡雙待八核享拍機(加送原廠皮套+螢幕保護貼) (1) (0)
2015-01-28 超讚!【草本之家】木寡糖 XOS(30粒X10盒) (0) (0)
2015-01-28 【ASUS】ZenFone 5 A500KL 4G LTE 2G-8G 四核手機(送背蓋+濾藍光保貼+16G SD) (0) (0)
2015-01-28 超讚!3點1刻 嚴選烏梅湯(15入-袋)4袋組 (0) (0)
2015-01-28 【連一】麻辣鍋底任選2罐組(1700g-罐) (0) (0)
2015-01-28 大推...【Simply】特濃紅豆水+速燃馬甲錠(3+1組) (1) (0)
2015-01-28 大推...【草本之家】飯前飽足日本寒天錠(350粒3入) (0) (0)
2015-01-28 大推...【樂活e棧】光棍蒟蒻麵海藻烏龍+6醬(任選共18份) (0) (0)
2015-01-28 【億長御坊】精選功夫菜套組(6件組) (8) (0)
2015-01-27 必buy!【Clinique】超水感新一代水磁場保濕凝膠 75ml (0) (0)
2015-01-27 【林家豬腳.加贈麵線】萬巒豬腳 1125g-包 2包組(加贈手工麵線200g-包x2) (0) (0)
2015-01-27 【內灣彭老師】正宗野薑花粽 10入-盒 10盒組(葷-素口味任選) (0) (0)
2015-01-27 必buy!【The Body Shop】FIT緊實曲線按摩組 (0) (0)
2015-01-26 大推...【A Beauty Girl】活力飽足健康營養-巧克力奶昔(30包) (0) (0)
2015-01-26 【預購-買新鮮】六六大順珍饌年菜6件組(4菜2湯 約4-6人份) (1) (0)
2015-01-26 必buy!【StriVectin】6倍亮眼回饋組(MOMO獨家-即期品) (0) (0)
2015-01-26 必buy!【Ester lauder 雅詩蘭黛】買大送小 微分子肌底原生露(150ml 加贈30ml) (0) (0)
2015-01-26 【現貨-海霸王】翡翠海鮮羹 1盒組(1500g-盒) (0) (0)
2015-01-26 【GLYCINE】KMU48 爭鋒機械腕錶(3906.19) (0) (0)
2015-01-26 【禎祥食品】遵巡古法『傳統蘿蔔糕』(5包共60片) (0) (0)
2015-01-26 【SKII】環采鑽白粉凝霜蕊+全效潔面乳 20g+青春露10ml (0) (0)
2015-01-24 【老東山滷味】輕食爽口擢A6件組(綿密冰心地瓜、珍釀雞爪、鮮脆杏鮑菇) (0) (0)
2015-01-24 【Emon】公主甜心。防外擴穩定款BCD罩杯少女內衣(水) (0) (0)
2015-01-24 【卜蜂】去骨雞胸肉真空包20片(每包2片-250g-共10包) (4) (0)
2015-01-24 【AINIA SubRosa】玫瑰蜜戀 下厚上薄爆乳機能內衣褲 3套組(422000G0+O+BL-E) (0) (0)
2015-01-24 【元進莊】法式鴨胸(1000g) (0) (0)
2015-01-24 【KENZO】品味出眾紳士腕錶-米白色x綠皮帶(KN250201) (0) (0)
2015-01-24 【綠安生活】信義巨峰葡萄手提禮盒1盒(2kg-盒) (0) (0)
2015-01-24 【Folli Follie】愛戀時庖嘍p都殿藩-白 WF1B032SSW-WH) (0) (0)
2015-01-24 【FENDI 芬迪】Selleria 維多利亞時延藩-F81034HTJU) (0) (0)
2015-01-24 【A│X Armani Exchange】時帚戛a風格腕錶-黑-40mm(AX1322) (0) (0)
2015-01-23 【Tonino Lamborghini】林寶堅尼 倒三角機械腕錶(TL- 8853) (0) (0)
2015-01-23 【十善無毒海鮮】省產鱸魚大魚排6片組(300g-大片) (0) (0)
2015-01-23 【ANLICO】炫麗豹紋*舒適加強Bra挖背款(時弦-096) (0) (0)
2015-01-23 【SEIKO】Kinetic 互動式人動電能時延藩-銀(5D22-0AD0G) (0) (0)
1 234
找更多相關文章與討論